Weather observations for the past three days for
Bakersfield, Meadows Field Airport
Metric (Imperial)
Date Time (pdt) Wind (kph) Vis. (km) Weather Sky Cond. Temperature (ºC) Relative Humidity Wind Chill (°C) Heat Index (°C) Pressure Precipitation (cm)
Air Dwpt 6 hour altimeter (cm) sea level (mb) 1 hr 3 hr 6 hr
Max. Min.
03 15:54 Vrbl 7 16.09 Fair CLR 28.9 10 31% 28 75.82 1010.4
03 14:54 W 11 16.09 Fair CLR 27.8 10.6 34% 27 75.9 1011.3
03 13:54 Calm 16.09 Fair CLR 26.7 10.6 37% 26 75.95 1012.0
03 12:54 SW 9 16.09 Fair CLR 25 11.1 42% 26 76.02 1012.9
03 11:54 Calm 16.09 Fair CLR 23.3 11.1 46% 76.07 1013.8
03 10:54 Vrbl 9 14.48 Fair CLR 21.7 11.7 22.2 15.6 53% 76.15 1014.6
03 09:54 Calm 16.09 Fair CLR 20.6 11.1 55% 76.17 1015.0
03 08:54 S 9 16.09 Fair CLR 18.9 11.1 61% 76.2 1015.3
03 07:54 Calm 16.09 Fair CLR 17.2 11.1 68% 76.2 1015.4
03 06:54 Calm 16.09 Fair CLR 15.6 11.1 75% 76.15 1014.8
03 05:54 Calm 16.09 Fair CLR 16.1 11.1 72% 76.12 1014.4
03 04:54 W 11 16.09 Fair CLR 17.2 11.1 22.8 17.2 68% 76.1 1014.1
03 03:54 W 7 16.09 Fair CLR 17.8 10.6 63% 76.1 1014.1
03 02:54 W 6 16.09 Fair CLR 18.3 10 59% 76.07 1013.7
03 01:54 NW 9 16.09 Fair CLR 18.9 10.6 59% 76.1 1013.9
03 00:54 N 11 16.09 Fair CLR 20.6 10 51% 76.1 1014.1
02 23:54 NW 7 16.09 Fair CLR 20.6 8.9 47% 76.1 1014.0
02 22:54 Calm 16.09 Fair CLR 22.2 7.8 28.3 22.2 40% 76.07 1013.7
02 21:54 N 6 16.09 Fair CLR 23.9 7.8 36% 25 76.1 1013.8
02 20:54 NE 6 16.09 Fair CLR 25 7.8 33% 25 76.07 1013.5
02 19:54 N 7 16.09 Fair CLR 25 8.3 35% 26 76.02 1013.0
02 18:54 NW 13 16.09 Fair CLR 26.7 8.9 33% 26 76.05 1013.2
02 17:54 NW 17 16.09 Fair CLR 27.8 8.9 31% 27 76.05 1013.3
02 16:54 NW 19 G 28 16.09 Fair CLR 28.3 8.3 28.3 21.1 28% 27 76.07 1013.6
02 15:54 NW 13 16.09 Fair CLR 27.8 8.9 31% 27 76.12 1014.3
02 14:54 W 11 16.09 Fair CLR 26.7 9.4 34% 26 76.17 1015.0
02 13:54 NW 15 16.09 Fair CLR 26.1 8.9 34% 26 76.23 1015.6
02 12:54 Calm 16.09 Fair CLR 24.4 9.4 39% 25 76.28 1016.3
02 11:54 SW 11 16.09 Fair CLR 22.8 9.4 43% 76.33 1017.1
02 10:54 N 7 16.09 Fair CLR 21.1 9.4 21.1 14.4 47% 76.35 1017.5
02 09:54 SW 7 16.09 Fair CLR 19.4 8.9 51% 76.35 1017.5
02 08:54 SE 9 16.09 Fair CLR 18.3 8.9 54% 76.35 1017.3
02 07:54 SE 11 14.48 Fair CLR 16.7 7.8 56% 76.35 1017.5
02 06:54 E 6 14.48 Fair CLR 15.6 6.7 56% 76.33 1017.2
02 05:54 Calm 16.09 Fair CLR 15 6.1 56% 76.33 1016.9
02 04:54 Calm 16.09 Fair CLR 15.6 7.2 20.6 15 58% 76.28 1016.5
02 03:54 N 6 16.09 Fair CLR 15.6 7.2 58% 76.3 1016.6
02 02:54 W 7 16.09 Fair CLR 16.7 6.7 52% 76.28 1016.3
02 01:54 W 7 16.09 Fair CLR 17.2 6.7 50% 76.25 1016.1
02 00:54 W 7 16.09 Fair CLR 17.8 5.6 45% 76.23 1015.7
01 23:54 NW 9 16.09 Fair CLR 18.3 4.4 40% 76.17 1015.0
01 22:54 N 17 16.09 Fair CLR 20.6 6.1 28.9 20 39% 76.1 1014.1
01 21:54 NW 19 16.09 Fair CLR 21.1 7.2 41% 76.07 1013.9
01 20:54 NW 13 16.09 Fair CLR 23.9 5.6 31% 25 76.02 1013.0
01 19:54 NW 11 12.87 Fair CLR 23.9 6.7 33% 25 75.95 1012.1
01 18:54 NW 17 16.09 Fair CLR 27.2 7.2 28% 26 75.92 1011.7
01 17:54 NW 15 16.09 Fair CLR 28.3 7.2 26% 27 75.92 1011.6
01 16:54 NW 13 16.09 Fair CLR 28.9 5 29.4 20.6 22% 27 75.95 1011.9
01 15:54 W 11 16.09 Fair CLR 28.3 5.6 24% 27 75.97 1012.4
01 14:54 W 11 16.09 Fair CLR 27.8 8.9 31% 27 76.02 1013.0
01 13:54 Calm 16.09 Fair CLR 26.1 9.4 35% 26 76.1 1013.8
01 12:54 Vrbl 7 16.09 Fair CLR 24.4 10 40% 25 76.15 1014.6
01 11:54 W 7 16.09 Fair CLR 22.2 10.6 48% 76.2 1015.3
01 10:54 Calm 16.09 Fair CLR 21.1 10 21.7 13.9 49% 76.2 1015.4
01 09:54 NW 13 16.09 Fair CLR 20 10.6 55% 76.2 1015.5
01 08:54 NW 17 14.48 Fair CLR 17.8 10 60% 76.23 1015.5
01 07:54 NW 11 14.48 Fair CLR 16.7 8.3 58% 76.2 1015.3
01 06:54 NW 9 16.09 Fair CLR 13.9 7.2 64% 76.12 1014.3
01 05:54 NW 11 16.09 Fair CLR 15 7.8 62% 76.07 1013.7
01 04:54 NW 11 16.09 Fair CLR 15.6 7.2 22.2 15.6 58% 76.02 1012.9
01 03:54 N 11 16.09 Fair CLR 16.7 7.2 54% 76.02 1012.7
01 02:54 NW 9 16.09 Fair CLR 17.2 5.6 47% 75.97 1012.3
01 01:54 NW 13 16.09 Fair CLR 17.8 3.9 40% 75.95 1012.0
01 00:54 N 9 16.09 Fair CLR 19.4 -0.6 26% 75.95 1011.7
31 23:54 W 11 16.09 Fair CLR 21.1 1.1 27% 75.92 1011.5
31 22:54 N 7 16.09 Fair CLR 22.2 4.4 34.4 22.2 31% 75.92 1011.4
31 21:54 N 19 16.09 Fair CLR 25 4.4 26% 25 75.82 1010.2
31 20:54 N 15 16.09 Fair CLR 25 5 28% 25 75.77 1009.5
31 19:54 NW 20 16.09 Fair CLR 27.2 5 24% 26 75.69 1008.6
31 18:54 NW 19 16.09 Fair CLR 30.6 6.7 22% 29 75.64 1007.9
31 17:54 NW 20 16.09 Fair CLR 33.9 3.9 15% 32 75.64 1007.7
31 16:54 NW 24 16.09 Fair CLR 33.9 5.6 35 27.8 17% 32 75.67 1007.9
Date Time (pdt) Wind (kph) Vis. (km) Weather Sky Cond. Air Dwpt Max. Min. Relative Humidity Wind Chill (°C) Heat Index (°C) altimeter (cm) sea level (mb) 1 hr 3 hr 6 hr
6 hour
Temperature (ºC) Pressure Precipitation (cm)